TimeMDT,TemperatureF,Dew PointF,Humidity,Sea Level PressureIn,VisibilityMPH,Wind Direction,Wind SpeedMPH,Gust SpeedMPH,PrecipitationIn,Events,Conditions,WindDirDegrees,DateUTC
12:53 AM,73.9,55.0,52,29.89,10.0,SSW,11.5,-,N/A,,Clear,210,2013-07-20 06:53:00
1:53 AM,73.9,55.0,52,29.87,10.0,SSW,10.4,-,N/A,,Clear,210,2013-07-20 07:53:00
2:53 AM,71.1,57.0,61,29.89,10.0,South,5.8,-,N/A,,Clear,170,2013-07-20 08:53:00
3:53 AM,64.9,55.9,73,29.90,10.0,North,5.8,-,N/A,,Clear,350,2013-07-20 09:53:00
4:53 AM,60.1,55.0,83,29.89,10.0,NNW,3.5,-,N/A,,Clear,330,2013-07-20 10:53:00
5:53 AM,57.9,55.0,90,29.89,10.0,WNW,4.6,-,N/A,,Clear,290,2013-07-20 11:53:00
6:53 AM,64.9,57.0,75,29.94,10.0,North,13.8,28.8,N/A,,Clear,10,2013-07-20 12:53:00
7:53 AM,64.9,60.1,84,29.98,9.0,NE,6.9,-,0.00,Rain-Thunderstorm,Light Rain,50,2013-07-20 13:53:00
8:16 AM,64.4,60.8,88,29.99,8.0,ESE,20.7,26.5,0.01,Rain,Light Rain,110,2013-07-20 14:16:00
8:23 AM,62.6,59.0,88,29.97,10.0,ESE,21.9,-,0.02,Rain-Thunderstorm,Light Thunderstorms and Rain,120,2013-07-20 14:23:00
8:53 AM,66.0,57.9,75,29.89,10.0,South,23.0,43.7,0.02,Thunderstorm,Thunderstorm,170,2013-07-20 14:53:00
9:28 AM,66.2,57.2,73,29.92,10.0,ESE,12.7,20.7,0.00,Rain,Light Rain,120,2013-07-20 15:28:00
9:53 AM,73.9,55.0,52,29.85,10.0,South,8.1,-,0.00,,Clear,190,2013-07-20 15:53:00
10:18 AM,69.8,60.8,73,29.93,10.0,West,3.5,-,0.00,Rain-Thunderstorm,Light Thunderstorms and Rain,260,2013-07-20 16:18:00
10:42 AM,73.4,59.0,61,29.95,10.0,WSW,10.4,-,0.00,,Clear,240,2013-07-20 16:42:00
10:53 AM,71.1,60.1,68,29.88,10.0,SW,10.4,-,0.00,,Partly Cloudy,230,2013-07-20 16:53:00
11:53 AM,77.0,59.0,54,29.87,10.0,ESE,3.5,-,N/A,,Clear,110,2013-07-20 17:53:00
12:53 PM,82.0,60.1,47,29.85,10.0,North,3.5,-,N/A,,Clear,350,2013-07-20 18:53:00
1:53 PM,87.1,57.0,36,29.82,10.0,SSW,3.5,-,N/A,,Clear,210,2013-07-20 19:53:00
2:53 PM,91.0,54.0,28,29.79,10.0,SW,6.9,-,N/A,,Clear,230,2013-07-20 20:53:00
3:53 PM,93.9,50.0,22,29.78,10.0,NNE,4.6,-,N/A,,Clear,20,2013-07-20 21:53:00
4:53 PM,84.9,57.0,38,29.81,10.0,NNE,18.4,25.3,N/A,,Clear,30,2013-07-20 22:53:00
5:53 PM,82.9,57.0,41,29.78,10.0,East,19.6,28.8,N/A,Thunderstorm,Clear,80,2013-07-20 23:53:00
6:17 PM,77.0,57.2,50,29.88,10.0,SSE,20.7,35.7,N/A,,Clear,150,2013-07-21 00:17:00
6:33 PM,77.0,57.2,50,29.90,10.0,South,16.1,-,N/A,,Mostly Cloudy,180,2013-07-21 00:33:00
6:43 PM,73.4,62.6,69,29.88,4.0,SSE,11.5,-,0.06,Rain-Thunderstorm,Light Thunderstorms and Rain,160,2013-07-21 00:43:00
6:51 PM,69.8,62.6,78,29.88,2.5,SE,18.4,23.0,0.08,Rain-Thunderstorm,Light Thunderstorms and Rain,140,2013-07-21 00:51:00
6:53 PM,70.0,62.1,76,29.82,3.0,SE,16.1,-,0.08,Rain,Light Rain,140,2013-07-21 00:53:00
7:53 PM,68.0,62.1,81,29.82,10.0,Calm,Calm,-,0.00,,Partly Cloudy,0,2013-07-21 01:53:00
8:53 PM,66.9,63.0,87,29.85,10.0,North,9.2,-,N/A,,Clear,10,2013-07-21 02:53:00
9:53 PM,68.0,61.0,78,29.84,10.0,East,10.4,-,N/A,,Clear,100,2013-07-21 03:53:00
10:53 PM,64.9,60.1,84,29.86,10.0,Calm,Calm,-,N/A,,Clear,0,2013-07-21 04:53:00
11:53 PM,63.0,60.1,90,29.87,10.0,NNW,3.5,-,N/A,,Clear,340,2013-07-21 05:53:00